Temp
-12 -12 -9 -9 -9 -10 -12 -11 -11 -12 -13 -14 -13 -12 -11 -11 -9 -10 -10 -10 -11 -11 -10 -12 -12 -13 -13 -13 -13 -14 -13 -13 -13 -13 -13 -13 -13 -13 -13 -13 -13 -13 -13 -13
-12 -10 -10 -11 -12 -12 -12 -12 -11 -12 -12 -13 -12 -11 -10 -10 -10 -10 -10 -10 -11 -11 -12 -12 -12 -13 -13 -14 -13 -13 -13 -13 -13 -13 -12 -13 -13 -12 -13 -13 -13 -13 -13 -13
-12 -11 -12 -12 -12 -12 -11 -12 -12 -13 -13 -13 -13 -10 -10 -11 -10 -10 -10 -11 -11 -11 -12 -12 -12 -13 -13 -13 -13 -12 -13 -12 -13 -12 -13 -13 -12 -12 -13 -13 -13 -13 -13 -13
-12 -12 -12 -12 -12 -12 -12 -11 -13 -13 -13 -12 -12 -8 -10 -11 -10 -10 -10 -11 -11 -11 -12 -12 -13 -13 -12 -12 -12 -12 -12 -12 -12 -12 -13 -13 -12 -13 -13 -13 -13 -13 -13 -13
-10 -11 -11 -11 -10 -12 -10 -13 -13 -14 -13 -12 -12 -10 -10 -10 -11 -10 -11 -11 -11 -11 -12 -12 -12 -12 -11 -11 -12 -12 -12 -12 -12 -13 -12 -12 -12 -12 -13 -13 -13 -13 -13 -14
-11 -12 -12 -12 -12 -12 -13 -13 -13 -13 -12 -11 -11 -11 -8 -11 -10 -11 -11 -11 -11 -12 -12 -12 -12 -11 -11 -11 -11 -12 -12 -12 -12 -12 -12 -12 -12 -12 -13 -13 -13 -13 -13 -14
-11 -11 -12 -12 -12 -12 -12 -12 -12 -12 -12 -10 -10 -10 -9 -11 -11 -11 -10 -11 -12 -12 -12 -12 -12 -11 -11 -11 -11 -12 -12 -12 -12 -12 -12 -12 -12 -12 -12 -13 -13 -13 -13 -13
-12 -12 -11 -11 -11 -11 -11 -12 -11 -11 -11 -10 -10 -9 -8 -10 -12 -11 -10 -11 -12 -12 -11 -11 -12 -11 -11 -11 -11 -11 -12 -12 -12 -12 -12 -12 -12 -12 -13 -12 -13 -13 -14 -14
-12 -12 -12 -11 -11 -11 -11 -10 -11 -11 -11 -10 -9 -9 -9 -11 -11 -10 -11 -12 -11 -12 -11 -11 -11 -11 -11 -11 -11 -12 -12 -12 -12 -12 -12 -12 -12 -12 -12 -13 -13 -13 -14 -14
-12 -12 -12 -12 -12 -12 -11 -12 -11 -11 -10 -10 -9 -9 -9 -11 -10 -10 -11 -11 -11 -11 -11 -11 -11 -11 -11 -11 -11 -12 -12 -12 -12 -12 -12 -12 -12 -12 -12 -13 -13 -13 -14 -14
-12 -12 -12 -12 -11 -11 -11 -10 -10 -11 -10 -10 -9 -9 -10 -11 -11 -11 -11 -11 -11 -10 -11 -11 -11 -10 -11 -11 -11 -12 -12 -12 -13 -13 -12 -12 -12 -12 -12 -13 -12 -13 -13 -13
-12 -12 -12 -11 -12 -11 -11 -11 -10 -9 -9 -9 -9 -9 -10 -11 -11 -11 -11 -11 -10 -11 -11 -11 -11 -11 -11 -11 -11 -11 -12 -12 -12 -13 -12 -12 -12 -12 -12 -12 -12 -13 -13 -12
-12 -13 -12 -12 -11 -11 -10 -10 -9 -10 -10 -9 -9 -9 -10 -11 -11 -11 -11 -11 -11 -11 -11 -10 -11 -11 -11 -11 -11 -11 -12 -12 -12 -12 -12 -12 -12 -12 -12 -12 -12 -12 -12 -12
-13 -12 -12 -11 -10 -11 -10 -10 -10 -10 -9 -9 -9 -9 -12 -11 -11 -10 -11 -11 -11 -11 -10 -10 -11 -11 -11 -11 -11 -11 -11 -11 -12 -12 -12 -12 -12 -11 -12 -12 -12 -12 -12 -12
-14 -12 -11 -11 -11 -11 -11 -11 -10 -9 -9 -9 -10 -10 -10 -11 -11 -11 -12 -11 -11 -11 -10 -10 -11 -11 -11 -11 -11 -11 -12 -11 -11 -12 -12 -12 -12 -12 -12 -12 -12 -12 -12 -12
-14 -13 -12 -11 -11 -11 -11 -10 -10 -9 -10 -9 -10 -11 -12 -12 -10 -11 -12 -12 -11 -10 -10 -10 -11 -11 -11 -11 -11 -11 -11 -11 -11 -12 -12 -12 -12 -13 -13 -12 -12 -12 -12 -12
-15 -13 -12 -12 -12 -12 -11 -9 -9 -9 -10 -10 -10 -10 -12 -11 -11 -11 -12 -11 -12 -11 -10 -10 -11 -11 -11 -11 -11 -11 -11 -11 -11 -12 -12 -12 -12 -13 -12 -12 -12 -12 -12 -12
-16 -14 -12 -12 -13 -12 -10 -11 -10 -10 -10 -10 -10 -11 -12 -12 -11 -11 -12 -12 -12 -12 -10 -10 -11 -11 -11 -11 -11 -11 -11 -11 -11 -12 -12 -12 -12 -12 -12 -12 -12 -12 -12 -12
-17 -14 -13 -14 -13 -12 -11 -12 -11 -10 -10 -10 -10 -11 -12 -12 -12 -11 -13 -12 -12 -12 -11 -10 -11 -11 -11 -11 -11 -11 -11 -11 -12 -12 -12 -12 -12 -12 -12 -12 -12 -12 -12 -12
-17 -16 -14 -14 -13 -12 -12 -12 -11 -11 -11 -10 -10 -11 -11 -12 -11 -11 -12 -12 -12 -11 -11 -11 -11 -11 -11 -11 -11 -11 -11 -11 -12 -12 -12 -12 -12 -12 -12 -12 -12 -12 -12 -12
-18 -17 -15 -15 -13 -12 -12 -12 -12 -11 -10 -10 -10 -11 -11 -10 -10 -11 -12 -12 -12 -11 -11 -11 -11 -11 -11 -11 -11 -11 -11 -11 -12 -12 -12 -12 -12 -12 -12 -12 -12 -12 -12 -12
-18 -17 -17 -16 -14 -13 -13 -13 -12 -12 -10 -10 -10 -10 -10 -10 -10 -11 -13 -12 -12 -11 -11 -11 -11 -10 -11 -11 -11 -11 -11 -11 -11 -12 -12 -12 -12 -12 -12 -12 -12 -12 -12 -12
-18 -18 -17 -16 -15 -14 -14 -13 -12 -12 -11 -11 -10 -11 -11 -10 -9 -10 -11 -11 -11 -11 -11 -11 -11 -10 -10 -11 -11 -11 -11 -11 -11 -12 -12 -12 -12 -12 -12 -12 -12 -12 -12 -12
-18 -18 -17 -16 -16 -14 -14 -14 -13 -12 -12 -11 -11 -11 -11 -11 -10 -10 -11 -11 -11 -11 -11 -11 -11 -11 -10 -11 -11 -11 -11 -11 -11 -11 -12 -12 -12 -12 -12 -12 -12 -12 -12 -12
-18 -18 -17 -16 -16 -16 -15 -15 -13 -13 -12 -11 -11 -11 -11 -11 -11 -11 -11 -11 -11 -11 -11 -11 -11 -11 -11 -10 -11 -11 -11 -11 -11 -11 -11 -12 -12 -12 -12 -12 -12 -12 -12 -12
-19 -19 -17 -17 -16 -16 -15 -15 -15 -13 -13 -12 -11 -11 -11 -11 -11 -11 -11 -11 -11 -11 -11 -11 -11 -11 -10 -10 -10 -11 -11 -11 -11 -11 -11 -11 -12 -12 -12 -12 -12 -12 -13 -12
Height
5731 5731 5735 5747 5751 5756 5764 5767 5771 5782 5779 5774 5771 5767 5771 5770 5770 5776 5779 5780 5782 5782 5783 5782 5781 5778 5778 5775 5771 5768 5764 5761 5756 5751 5746 5741 5738 5734 5729 5725 5721 5716 5710 5705
5718 5719 5737 5733 5742 5749 5754 5758 5766 5773 5772 5766 5766 5763 5769 5770 5771 5773 5775 5777 5778 5779 5778 5776 5775 5773 5772 5770 5766 5763 5760 5755 5751 5746 5741 5738 5734 5730 5725 5721 5717 5712 5706 5700
5709 5722 5720 5725 5733 5737 5745 5752 5763 5765 5762 5759 5758 5757 5764 5767 5767 5769 5772 5773 5775 5775 5773 5772 5770 5768 5766 5763 5761 5759 5755 5751 5746 5742 5737 5734 5730 5726 5721 5717 5713 5708 5703 5697
5698 5709 5707 5712 5719 5731 5736 5750 5753 5757 5753 5754 5753 5748 5758 5761 5763 5766 5770 5770 5771 5770 5768 5768 5766 5763 5760 5758 5757 5754 5750 5746 5742 5738 5734 5730 5726 5721 5718 5713 5709 5704 5699 5694
5693 5701 5702 5705 5712 5722 5731 5742 5745 5748 5745 5744 5748 5744 5757 5756 5758 5764 5767 5767 5767 5765 5764 5764 5763 5760 5757 5754 5753 5751 5746 5741 5738 5735 5731 5727 5721 5718 5715 5710 5706 5701 5696 5691
5679 5687 5692 5701 5707 5715 5723 5730 5734 5736 5735 5728 5746 5744 5751 5753 5759 5760 5762 5762 5761 5762 5761 5761 5760 5756 5753 5751 5749 5746 5741 5738 5735 5731 5727 5722 5718 5715 5711 5707 5703 5698 5693 5689
5666 5672 5684 5690 5698 5705 5712 5719 5723 5725 5723 5723 5744 5739 5748 5750 5752 5756 5757 5758 5759 5757 5758 5757 5755 5752 5750 5748 5745 5742 5738 5736 5733 5728 5723 5718 5716 5713 5709 5706 5701 5696 5691 5689
5656 5664 5673 5682 5690 5699 5706 5713 5716 5719 5722 5726 5740 5729 5743 5750 5749 5750 5752 5754 5756 5756 5754 5753 5751 5747 5746 5745 5742 5739 5737 5734 5730 5725 5720 5717 5714 5710 5707 5704 5699 5695 5691 5689
5643 5653 5665 5675 5683 5692 5699 5701 5713 5716 5718 5719 5731 5731 5739 5745 5744 5748 5750 5752 5753 5752 5751 5750 5747 5745 5744 5741 5739 5738 5735 5732 5727 5723 5719 5716 5712 5709 5706 5701 5699 5694 5691 5690
5635 5642 5655 5665 5673 5681 5689 5699 5704 5706 5708 5711 5720 5728 5737 5741 5741 5745 5747 5749 5749 5749 5748 5747 5745 5743 5741 5739 5737 5736 5733 5730 5725 5721 5718 5716 5712 5709 5705 5701 5699 5695 5692 5690
5624 5631 5645 5653 5662 5674 5681 5684 5689 5697 5701 5705 5711 5724 5735 5736 5738 5742 5745 5745 5745 5745 5744 5744 5743 5741 5739 5737 5736 5734 5731 5729 5725 5722 5719 5716 5713 5710 5707 5702 5699 5696 5694 5693
5609 5621 5633 5648 5658 5666 5673 5679 5688 5695 5699 5701 5709 5722 5728 5731 5735 5739 5741 5742 5741 5741 5742 5741 5741 5739 5737 5735 5734 5733 5731 5729 5727 5724 5721 5717 5714 5711 5708 5704 5702 5700 5698 5697
5597 5610 5625 5635 5646 5653 5661 5671 5677 5682 5687 5694 5705 5717 5721 5725 5730 5735 5737 5738 5738 5739 5739 5739 5738 5737 5736 5734 5734 5733 5731 5729 5727 5724 5722 5719 5716 5713 5710 5708 5705 5704 5702 5701
5587 5601 5615 5629 5644 5652 5655 5661 5668 5675 5679 5690 5700 5712 5716 5721 5726 5731 5733 5734 5736 5736 5737 5737 5737 5736 5735 5734 5734 5733 5731 5730 5728 5725 5723 5720 5717 5715 5712 5710 5709 5706 5706 5704
5579 5596 5610 5622 5632 5640 5648 5660 5665 5668 5677 5685 5701 5707 5711 5716 5723 5727 5730 5732 5734 5734 5735 5736 5736 5735 5735 5734 5733 5733 5732 5730 5729 5727 5724 5722 5719 5716 5713 5713 5712 5710 5710 5708
5570 5586 5600 5615 5625 5633 5640 5645 5654 5664 5675 5685 5693 5702 5708 5714 5718 5722 5726 5730 5731 5732 5733 5734 5734 5734 5734 5734 5734 5733 5732 5731 5729 5728 5726 5724 5722 5720 5717 5716 5715 5714 5712 5711
5563 5576 5590 5606 5615 5624 5630 5645 5653 5660 5667 5682 5690 5702 5704 5709 5715 5717 5724 5728 5729 5729 5731 5733 5732 5733 5734 5734 5734 5734 5732 5731 5730 5729 5728 5727 5725 5724 5723 5721 5719 5719 5716 5714
5556 5568 5581 5595 5608 5615 5638 5642 5650 5657 5668 5675 5684 5692 5700 5706 5712 5715 5720 5724 5727 5727 5729 5731 5731 5732 5732 5733 5734 5734 5733 5732 5731 5731 5731 5730 5730 5728 5727 5726 5724 5723 5721 5720
5551 5561 5574 5585 5602 5621 5629 5638 5643 5649 5666 5673 5678 5687 5693 5700 5705 5710 5715 5721 5724 5726 5727 5729 5729 5730 5731 5733 5734 5734 5734 5733 5732 5733 5733 5733 5733 5732 5731 5730 5729 5728 5726 5725
5549 5557 5567 5581 5597 5611 5616 5626 5635 5645 5658 5663 5670 5679 5685 5692 5696 5705 5712 5717 5721 5723 5725 5726 5727 5728 5729 5731 5733 5734 5734 5734 5734 5734 5735 5736 5736 5736 5735 5735 5734 5733 5731 5731
5546 5552 5563 5575 5592 5603 5607 5621 5631 5639 5656 5657 5665 5672 5677 5682 5694 5703 5709 5714 5717 5721 5723 5724 5725 5727 5728 5729 5732 5733 5734 5735 5735 5735 5737 5738 5738 5738 5739 5738 5738 5737 5736 5735
5544 5552 5561 5571 5585 5596 5602 5615 5624 5628 5644 5651 5660 5667 5674 5683 5690 5696 5703 5710 5713 5717 5720 5722 5724 5725 5726 5728 5730 5731 5734 5735 5736 5736 5737 5739 5740 5740 5740 5740 5741 5741 5740 5740
5545 5550 5559 5568 5578 5588 5596 5607 5612 5626 5636 5646 5655 5663 5671 5679 5687 5688 5696 5704 5709 5714 5717 5719 5721 5723 5724 5726 5728 5730 5732 5734 5735 5736 5738 5739 5741 5742 5742 5743 5743 5744 5745 5745
5540 5546 5555 5563 5572 5585 5592 5599 5610 5619 5629 5641 5650 5659 5667 5675 5682 5687 5690 5699 5704 5709 5712 5716 5718 5720 5722 5724 5726 5728 5730 5732 5734 5736 5737 5739 5741 5742 5744 5745 5745 5747 5747 5748
5534 5542 5550 5560 5568 5577 5585 5592 5604 5614 5623 5634 5645 5654 5662 5670 5676 5681 5686 5693 5699 5704 5708 5712 5715 5717 5719 5721 5724 5727 5728 5730 5732 5734 5736 5739 5741 5742 5744 5745 5747 5748 5749 5750
5530 5537 5544 5554 5562 5568 5578 5587 5598 5608 5617 5626 5638 5648 5657 5665 5670 5677 5683 5687 5694 5699 5703 5707 5711 5714 5715 5718 5721 5724 5726 5727 5729 5733 5735 5737 5739 5742 5743 5744 5746 5748 5750 5751
Wind_Speed
58 65 63 59 63 67 63 56 50 36 30 31 29 34 22 29 33 21 22 22 20 20 9 7 12 14 22 25 32 35 30 27 28 31 30 31 34 34 31 29 30 34 36 32
51 54 51 65 67 64 60 57 45 22 21 30 29 35 21 26 23 25 24 22 17 11 7 9 13 18 23 27 31 31 26 26 28 29 30 32 32 34 31 29 29 31 33 27
49 41 42 54 62 62 50 43 29 21 31 31 35 32 21 25 27 22 19 20 12 12 7 8 14 20 24 26 27 23 23 25 27 28 30 32 32 31 29 29 27 31 29 20
47 44 38 40 50 54 48 32 33 30 34 30 34 31 23 26 28 23 20 14 14 10 6 10 15 20 16 15 18 19 21 24 27 28 30 30 31 26 24 26 26 29 23 20
46 43 40 36 39 39 36 33 34 31 36 37 36 40 16 28 29 23 16 12 11 4 7 13 20 20 12 16 16 18 23 24 27 29 28 28 27 22 22 25 23 25 21 16
50 43 42 31 28 32 38 35 35 33 39 48 32 38 15 28 21 21 24 14 11 5 8 11 20 15 12 15 17 19 22 23 27 28 27 26 23 21 22 21 24 21 19 11
54 52 46 41 37 38 41 39 39 44 47 46 28 36 4 9 25 21 18 15 11 8 12 15 22 14 13 16 15 18 20 23 26 25 25 23 18 21 21 19 19 18 13 7
57 54 53 49 43 42 41 42 43 43 41 40 27 37 10 18 20 23 18 15 14 11 7 14 17 13 16 17 15 17 19 23 23 22 21 16 19 19 19 19 13 17 10 6
59 55 51 51 47 43 42 45 41 42 43 46 33 35 23 16 29 17 13 15 14 5 7 13 13 12 17 13 13 15 18 19 20 20 17 18 18 19 18 13 12 13 8 4
61 59 53 52 48 49 48 44 44 46 46 47 39 33 20 24 28 17 13 17 10 9 6 11 10 12 9 10 10 13 17 18 18 17 15 15 16 15 14 11 12 13 8 4
61 63 56 50 54 50 52 53 53 49 49 49 46 32 20 31 29 19 18 16 11 6 8 11 7 7 11 9 8 13 14 14 17 15 13 13 15 11 16 16 15 13 10 6
66 63 59 51 43 45 46 46 45 48 47 46 42 28 23 28 29 23 21 16 7 4 7 8 5 5 11 10 8 12 12 14 15 13 12 14 18 11 13 15 14 16 10 8
70 65 58 55 49 46 46 45 46 45 47 45 36 23 26 28 26 26 23 13 5 5 7 6 6 4 9 11 8 11 11 12 13 12 10 13 15 12 13 15 13 11 13 9
71 69 62 57 52 42 46 44 44 43 44 38 32 18 27 28 26 25 23 12 9 2 5 5 6 3 7 10 8 9 11 11 11 12 10 11 13 13 11 12 14 9 11 8
70 68 63 58 55 49 47 40 42 43 41 35 23 22 29 31 28 23 16 11 9 2 3 4 4 3 4 8 8 8 9 9 8 10 11 10 12 13 10 11 15 15 9 8
73 69 67 61 56 53 50 50 47 42 37 30 28 31 26 29 27 22 19 14 11 4 2 4 2 3 2 6 8 7 8 9 7 8 10 9 11 14 13 12 13 14 14 11
72 72 70 67 60 55 54 49 45 43 40 31 30 31 30 28 28 23 20 18 10 4 2 2 1 2 1 3 7 8 6 9 9 8 10 11 14 12 14 16 16 18 18 15
67 75 72 71 65 60 49 48 44 42 35 34 35 35 33 28 26 23 19 14 12 8 4 2 3 0 2 1 5 8 6 7 8 7 9 10 12 13 12 14 15 19 18 16
59 70 74 72 68 60 55 46 50 48 36 34 36 37 36 31 26 25 19 18 13 11 10 5 3 2 3 1 3 7 7 5 6 5 7 8 10 12 12 14 15 16 18 18
52 63 70 70 67 65 64 55 51 47 40 39 39 37 41 39 36 28 21 20 16 15 12 7 3 5 3 5 2 4 6 4 5 3 5 6 10 12 13 14 15 16 17 17
46 55 58 64 63 66 68 60 50 50 45 42 39 38 45 45 37 26 23 22 17 16 16 12 7 5 5 6 6 3 5 4 3 3 3 5 5 8 9 10 11 11 12 15
43 51 53 55 59 63 62 58 58 54 49 45 41 40 41 43 36 30 21 24 21 20 16 11 8 6 8 6 8 6 4 3 2 3 3 5 5 3 4 7 9 12 13 15
34 42 46 52 57 61 60 65 63 56 51 49 44 41 39 36 34 33 27 26 24 22 17 14 13 9 6 8 8 9 6 5 2 2 3 5 6 5 5 5 6 10 14 15
35 43 43 48 53 60 56 60 58 57 54 50 48 43 39 35 33 33 30 27 25 24 22 19 17 12 7 8 9 7 8 8 6 3 4 5 5 6 7 8 5 7 9 11
43 37 39 45 49 53 59 57 57 57 54 52 50 45 42 38 36 34 32 28 27 26 26 23 19 17 13 8 11 9 9 10 10 6 4 4 6 6 7 9 8 8 7 6
36 40 38 43 45 52 54 53 55 55 55 52 51 48 46 39 41 35 35 30 28 27 26 25 23 21 18 12 12 14 11 9 11 10 8 6 6 7 9 10 8 8 10 7
Wind_Direction
240 241 246 251 253 254 258 260 267 273 240 271 275 268 244 221 236 231 227 240 250 264 278 291 305 318 310 297 305 306 307 309 313 316 317 320 317 316 312 317 318 318 319 313
243 246 249 245 246 251 251 254 261 210 260 274 272 261 245 232 233 234 239 249 257 265 278 294 309 306 302 292 298 305 304 311 312 314 321 318 315 314 313 317 318 319 324 315
245 255 260 249 244 247 253 249 238 235 265 271 276 253 243 221 229 245 244 245 247 245 263 284 324 297 283 286 293 301 308 310 312 319 321 314 314 312 313 320 314 319 322 317
240 243 242 237 239 242 245 226 234 252 267 266 257 249 235 222 233 254 262 275 239 244 272 290 303 306 295 301 304 309 311 311 315 324 316 316 315 312 319 322 316 322 321 313
238 242 249 237 229 232 223 232 241 247 257 259 241 256 198 225 237 259 262 249 232 252 287 296 304 304 306 313 304 310 312 314 322 319 315 317 317 318 320 325 326 326 323 314
231 230 233 229 229 223 230 237 240 241 247 248 239 253 239 234 253 253 244 215 213 239 302 296 317 300 317 321 309 304 309 318 320 315 315 314 317 321 326 325 330 331 325 321
223 226 225 225 218 216 221 228 230 237 240 245 240 252 184 211 230 230 238 216 226 242 276 291 308 318 320 313 316 311 312 318 317 320 319 315 324 323 323 330 328 337 334 347
223 221 221 222 223 221 227 227 236 241 246 255 241 248 264 233 253 231 203 206 227 242 293 315 316 328 316 305 310 311 312 321 322 327 324 330 326 326 326 333 338 344 345 16
219 219 220 223 224 224 223 228 235 243 248 251 240 249 260 240 232 234 198 213 223 259 315 324 329 322 310 304 306 304 318 329 327 330 329 336 333 332 335 338 340 357 6 24
217 218 216 219 221 224 230 234 236 237 242 246 246 243 242 220 236 232 204 209 226 265 339 338 335 322 316 322 303 315 333 336 336 339 342 344 345 2 17 11 10 19 26 47
217 218 214 216 220 221 226 229 228 228 237 246 252 241 228 215 232 213 221 215 230 276 348 337 318 336 345 331 315 329 347 353 352 353 1 353 357 355 16 39 31 21 37 86
214 219 216 213 217 219 223 226 232 236 239 247 250 236 224 212 228 218 222 219 234 306 338 329 322 341 351 341 326 336 344 342 345 351 3 3 14 11 26 37 37 37 56 95
210 215 214 211 209 214 216 222 223 222 230 235 237 217 217 215 219 209 217 204 227 289 349 333 327 329 350 348 331 340 342 340 348 354 12 10 20 21 30 41 45 41 57 82
208 212 211 212 212 217 214 212 216 220 224 221 218 211 203 208 212 209 215 196 211 263 5 347 326 330 349 348 337 342 343 342 355 4 25 16 17 23 25 45 40 34 56 75
206 209 211 207 207 208 205 210 218 221 222 213 201 198 203 204 209 208 187 200 210 195 24 324 332 334 338 351 348 348 348 351 4 18 31 30 23 16 32 63 58 47 63 69
204 205 209 205 207 204 204 203 206 212 215 209 196 187 198 205 203 192 191 204 210 161 118 281 275 350 320 348 353 360 358 1 18 19 41 46 44 54 70 63 53 43 59 64
205 204 206 203 205 205 205 202 204 207 204 201 191 178 190 205 203 182 201 201 204 211 149 271 211 313 244 329 349 3 12 17 28 37 58 70 74 70 66 72 68 60 70 73
208 204 205 205 202 207 201 206 206 208 203 194 187 182 191 204 204 190 202 202 212 223 203 205 179 98 178 307 347 7 5 33 35 52 66 74 84 86 76 75 73 71 72 68
207 206 206 209 204 203 205 204 208 211 201 198 194 184 187 195 203 202 210 208 205 215 228 230 200 163 166 206 347 2 12 34 47 65 69 81 81 89 87 83 79 76 74 66
206 207 206 207 203 202 206 203 209 207 196 196 195 188 190 197 204 199 204 210 201 209 227 236 250 193 168 207 266 347 358 38 57 78 88 83 94 95 90 84 83 80 80 78
206 212 211 210 203 203 208 208 209 210 196 200 196 189 195 204 201 194 210 214 213 203 211 220 246 211 179 207 224 257 329 9 79 80 128 118 104 98 93 89 88 78 80 81
207 216 219 213 206 206 210 211 209 212 201 203 198 195 200 204 197 198 199 222 215 202 200 218 232 223 195 206 228 234 287 316 65 125 167 170 154 131 82 75 84 94 94 91
200 205 212 218 216 207 211 207 212 212 206 203 204 197 199 207 209 200 199 216 211 206 206 211 231 227 206 199 222 230 234 278 268 151 176 195 195 176 141 106 93 101 101 98
186 196 208 217 219 216 215 214 210 211 211 206 207 202 203 206 217 218 201 210 209 209 208 208 221 232 225 201 213 233 235 253 244 223 191 199 207 196 171 150 141 131 115 103
205 184 193 207 217 217 215 219 215 214 216 212 208 206 205 201 211 215 210 209 205 213 212 208 213 226 231 214 208 208 222 237 228 210 208 206 207 202 184 169 166 177 164 145
219 212 185 196 203 215 212 216 219 217 216 217 212 208 207 205 210 215 210 201 203 200 203 209 210 217 227 226 195 210 219 227 226 214 209 209 214 206 197 193 188 194 203 201